Flag for United Kingdom Weather past 2 weeks in Peterborough, England, United Kingdom

Now
59 °F

Overcast.


Feels Like: 57 °F
Forecast: 47 / 64 °F
Wind: 9 mph from North

Location: Wittering

Current Time: Sep 21, 2014 at 5:50:46 PM

Latest Report: Sep 21, 2014 at 4:50 PM


Visibility: N/A

Pressure: 30.27 "Hg

Humidity: 68%

Dew point: 48 °F

Location of PeterboroughLocation

Historic Weather in Peterborough — Graph

°F

Peterborough temperature yesterday

Maximum temperature yesterday: 63 °F (at 1:50 PM)
Minimum temperature yesterday: 55 °F (at 11:50 PM)
Average temperature yesterday: 59 °F

Past Weeks' High & Low Weather Summary

 TemperatureHumidityPressure
High73 °F (Sep 18, 2:50 PM)100% (Sep 8, 2:50 AM)30.36 "Hg (Sep 8, 2:50 AM)
Low45 °F (Sep 8, 2:50 AM)46% (Sep 8, 3:50 PM)29.83 "Hg (Sep 18, 5:50 AM)
Average59 °F84%30.09 "Hg
* Reported Sep 6 4:50 PM — Sep 21 4:50 PM, Peterborough, Weather by CustomWeather, © 2014

Note: Actual official high and low records may vary slightly from our data, if they occured in-between our weather recording intervals... More about our weather records

Advertising

Peterborough weather history for previous 24 hours

 ConditionsComfort  
Time TempWeatherWind HumidityBarometerVisibility
4:50 PM
Sep 21
59 °FOvercast.9 mph68%30.27 "HgN/A
3:50 PM61 °FPartly sunny.13 mph63%30.27 "HgN/A
2:50 PM61 °FBroken clouds.13 mph63%30.27 "HgN/A
1:50 PM63 °FScattered clouds.15 mph52%30.27 "HgN/A
12:50 PM61 °FPartly sunny.13 mph63%30.27 "HgN/A
11:50 AM64 °FPassing clouds.15 mph56%30.27 "HgN/A
10:50 AM63 °FMild.14 mph59%30.24 "HgN/A
9:50 AM61 °FCool.13 mph63%30.24 "HgN/A
8:50 AM57 °FPassing clouds.10 mph77%30.24 "HgN/A
7:50 AM50 °FFog.8 mph100%30.21 "Hg6 mi
6:50 AM48 °FFog.8 mph100%30.21 "Hg3 mi
5:50 AM50 °FFog.8 mph94%30.18 "Hg6 mi
4:50 AM50 °FCool.8 mph94%30.18 "HgN/A
3:50 AM52 °FCool.9 mph94%30.18 "HgN/A
2:50 AM52 °FPassing clouds.9 mph100%30.18 "HgN/A
1:50 AM54 °FPassing clouds.10 mph94%30.18 "HgN/A
12:50 AM54 °FPassing clouds.10 mph94%30.15 "HgN/A
11:50 PM
Sep 20
55 °FPassing clouds.13 mph94%30.15 "HgN/A
10:50 PM57 °FPassing clouds.13 mph88%30.12 "HgN/A
9:50 PM57 °FPartly cloudy.13 mph94%30.12 "HgN/A
8:50 PM57 °FPassing clouds.10 mph100%30.09 "Hg4 mi
7:50 PM59 °FFog.10 mph94%30.09 "Hg6 mi
6:50 PM59 °FPartly sunny.10 mph88%30.07 "HgN/A
Weather by CustomWeather, © 2014

See weather overviewHow to use our weather pages